Fitchburg, MA

5:01 AM EDT on April 29, 2017 (GMT -0400)
Fitchburg Municipal

Weather History for KFIT - April, 2014

Change the Weather History Date:

Thursday, April 3, 2014

  Actual Average (KORH) Record (KORH)
Temperature  
Mean Temperature 46 °F -  
Max Temperature 55 °F 50 °F 76 °F (2010)
Min Temperature 36 °F 32 °F 13 °F (1954)
Degree Days  
Heating Degree Days 20    
Moisture  
Dew Point 22 °F    
Average Humidity 41    
Maximum Humidity 64    
Minimum Humidity 27    
Precipitation  
Precipitation 0.00 in - - ()
Sea Level Pressure  
Sea Level Pressure 30.09 in    
Wind  
Wind Speed 7 mph (NW)    
Max Wind Speed 14 mph    
Max Gust Speed 17 mph    
Visibility 10 miles    
Events      
Averages and records for this station are not official NWS values.
T = Trace of Precipitation, MM = Missing Value Source: NWS Daily Summary

Daily Weather History Graph

Daily Weather History Graph

Search for Another Location

Airport or City:

Trip Planner

Search our weather history database for the weather conditions in past years. The results will help you decide how hot, cold, wet, or windy it might be!

Date:

Astronomy

Apr. 03, 2014 Rise Set
Actual Time 6:25 AM EDT 7:15 PM EDT
Civil Twilight 5:57 AM EDT 7:43 PM EDT
Nautical Twilight 5:23 AM EDT 8:17 PM EDT
Astronomical Twilight 4:48 AM EDT 8:53 PM EDT
Moon 8:48 AM EDT (4/3) 11:36 PM EDT (4/3)
Length of Visible Light 13h 46m
Length of Day
12h 49m
Waxing Crescent, 17% of the Moon is Illuminated
Apr 3
Waxing Crescent
Apr 7
First Quarter
Apr 15
Full
Apr 22
Last Quarter
Apr 29
New

Hourly Weather History & Observations

Time (EDT) Temp. Windchill Dew Point Humidity Pressure Visibility Wind Dir Wind Speed Gust Speed Precip Events Conditions
12:52 AM 43.0 °F 40.3 °F 23.0 °F 45% 30.06 in 10.0 mi Variable 4.6 mph - N/A   Clear
1:52 AM 42.1 °F 39.2 °F 23.0 °F 47% 30.06 in 10.0 mi North 4.6 mph - N/A   Clear
3:52 AM 39.9 °F 36.7 °F 21.0 °F 47% 30.06 in 10.0 mi NNW 4.6 mph - N/A   Clear
4:52 AM 39.9 °F 37.8 °F 21.0 °F 47% 30.06 in 10.0 mi Variable 3.5 mph - N/A   Clear
5:52 AM 36.0 °F 29.6 °F 21.9 °F 57% 30.07 in 10.0 mi NNW 8.1 mph - N/A   Clear
6:52 AM 36.0 °F 33.3 °F 23.0 °F 59% 30.09 in 10.0 mi NNW 3.5 mph - N/A   Clear
7:52 AM 39.9 °F 35.1 °F 24.1 °F 53% 30.11 in 10.0 mi WNW 6.9 mph - N/A   Clear
8:52 AM 45.0 °F 39.7 °F 21.9 °F 40% 30.12 in 10.0 mi NW 10.4 mph - N/A   Clear
9:52 AM 46.9 °F - 21.0 °F 36% 30.11 in 10.0 mi WNW 13.8 mph - N/A   Clear
10:52 AM 48.9 °F - 23.0 °F 36% 30.12 in 10.0 mi NW 11.5 mph - N/A   Clear
11:52 AM 50.0 °F - 23.0 °F 35% 30.11 in 10.0 mi West 11.5 mph 17.3 mph N/A   Clear
12:52 PM 52.0 °F - 23.0 °F 32% 30.08 in 10.0 mi NW 12.7 mph - N/A   Clear
1:52 PM 54.0 °F - 23.0 °F 30% 30.08 in 10.0 mi North 11.5 mph - N/A   Clear
2:52 PM 54.0 °F - 23.0 °F 30% 30.07 in 10.0 mi NNW 6.9 mph - N/A   Clear
3:52 PM 55.0 °F - 21.9 °F 28% 30.05 in 10.0 mi WNW 6.9 mph - N/A   Clear
4:52 PM 55.0 °F - 21.0 °F 27% 30.06 in 10.0 mi NW 11.5 mph - N/A   Clear
5:52 PM 53.1 °F - 21.9 °F 30% 30.06 in 10.0 mi NNW 9.2 mph - N/A   Clear
6:52 PM 51.1 °F - 21.0 °F 31% 30.07 in 10.0 mi NNW 9.2 mph - N/A   Clear
7:52 PM 46.9 °F - 21.9 °F 37% 30.08 in 10.0 mi NW 3.5 mph - N/A   Clear
8:52 PM 44.1 °F 42.5 °F 21.9 °F 42% 30.10 in 10.0 mi NNE 3.5 mph - N/A   Clear
9:52 PM 39.0 °F - 24.1 °F 55% 30.13 in 10.0 mi Calm Calm - N/A   Clear
11:52 PM 36.0 °F 33.3 °F 25.0 °F 64% 30.16 in 10.0 mi NW 3.5 mph - N/A   Clear